HULIANWANG DIGUI-109

Last updated on Mon Dec 15 2025 00:02:13 GMT+0000 (Coordinated Universal Time)

1 66919U 25285E 25348.33574885 .00000106 00000+0 15709-3 0 9999 2 66919 50.0064 110.7355 0007892 297.0727 62.9372 14.05717696 1130
UTC large
Height (km)
Speed (km/s)
/
Latitude / Longitude
Inclination (degrees)
Orbital Period (minutes)
Azimuth
Elevation
Range (km)
Doppler Factor

Next 0 passes for location: London (51.5072 / 0.1276)

Sorry there are no passes over London.